Location: Fort Worth, Tx
(32.7431°N, 97.3695°W)
Time: 14:12:33
(UTC-04:00)

Transit 2A - Pass Details

Date: 25 February 2024
Orbit: 596 x 956 km, 66.7° (Epoch: 20 April)

Event Time Altitude Azimuth Distance (km) Brightness Sun altitude
Exits shadow 05:09:20 13° 24° (NNE) 2,046 8.5 -37.0°
Maximum altitude 05:11:39 16° 55° (NE) 1,868 8.6 -36.5°
Drops below altitude 10° 05:14:57 10° 93° (E) 2,342 9.2 -35.8°
Sets 05:18:24 0° 114° (ESE) 3,350 10.0 -35.1°
